When you browse on this site, cookies collect data to enhance your experience and personalize the content and advertising you see.
Visit our Privacy Policy to learn more. By continuing to use the site, you agree to this use of cookies and data.
  • In Lithuania
  • List of Countries
  • For 7 days
  • Water Temperature
  • Satellite Maps
  • Weather Map
  • Weather Widgets
  • user-avatar
    Login

    Hourly Weather Garoua

    Today, 16 July, Tuesday

    Time Temperature Precipitation Wind Pressure Humidity
    00:00 +27°C° 0.1 mm 1 mps 742 mmHg 84%
    01:00 +26°C° 0 mm 1 mps 742 mmHg 84%
    02:00 +26°C° 0.5 mm 1 mps 742 mmHg 87%
    03:00 +26°C° 0.5 mm 1 mps 742 mmHg 90%
    04:00 +25°C° 0.5 mm 1 mps 742 mmHg 92%
    05:00 +25°C° 1.2 mm 1 mps 742 mmHg 92%
    06:00 +26°C° 1.2 mm 1 mps 743 mmHg 92%
    07:00 +26°C° 1.2 mm 1 mps 743 mmHg 92%
    08:00 +27°C° 0.1 mm 2 mps 744 mmHg 88%
    09:00 +28°C° 0.1 mm 2 mps 744 mmHg 83%
    10:00 +30°C° 0.1 mm 2 mps 744 mmHg 78%
    11:00 +31°C° 0.1 mm 2 mps 743 mmHg 74%
    12:00 +32°C° 0.1 mm 2 mps 743 mmHg 69%
    13:00 +34°C° 0.1 mm 2 mps 742 mmHg 65%
    14:00 +34°C° 0 mm 2 mps 742 mmHg 64%
    15:00 +33°C° 0 mm 1 mps 741 mmHg 63%
    16:00 +33°C° 0 mm 1 mps 740 mmHg 62%
    17:00 +31°C° 0 mm 1 mps 741 mmHg 67%
    18:00 +30°C° 0 mm 1 mps 741 mmHg 72%
    19:00 +29°C° 0 mm 1 mps 742 mmHg 77%
    20:00 +28°C° 0 mm 1 mps 742 mmHg 79%
    21:00 +28°C° 0 mm 1 mps 742 mmHg 81%
    22:00 +27°C° 0 mm 1 mps 743 mmHg 83%
    23:00 +27°C° 0 mm 1 mps 742 mmHg 85%

    Tomorrow, 17 July, Wednesday

    Time Temperature Precipitation Wind Pressure Humidity
    00:00 +26°C° 0 mm 1 mps 742 mmHg 87%
    01:00 +26°C° 0 mm 1 mps 742 mmHg 88%
    02:00 +26°C° 0 mm 1 mps 742 mmHg 90%
    03:00 +26°C° 0 mm 1 mps 742 mmHg 91%
    04:00 +25°C° 0 mm 1 mps 742 mmHg 93%
    05:00 +26°C° 0 mm 1 mps 742 mmHg 92%
    06:00 +26°C° 0 mm 1 mps 743 mmHg 90%
    07:00 +26°C° 0 mm 1 mps 743 mmHg 89%
    08:00 +28°C° 0 mm 2 mps 743 mmHg 82%
    09:00 +30°C° 0 mm 2 mps 743 mmHg 74%
    10:00 +32°C° 0 mm 2 mps 744 mmHg 66%
    11:00 +34°C° 0.3 mm 3 mps 743 mmHg 62%
    12:00 +35°C° 0.3 mm 3 mps 742 mmHg 58%
    13:00 +36°C° 0.3 mm 3 mps 742 mmHg 54%
    14:00 +36°C° 0.5 mm 3 mps 741 mmHg 56%
    15:00 +36°C° 0.5 mm 2 mps 741 mmHg 57%
    16:00 +35°C° 0.5 mm 2 mps 740 mmHg 59%
    17:00 +34°C° 0.4 mm 2 mps 740 mmHg 65%
    18:00 +31°C° 0.4 mm 2 mps 740 mmHg 72%
    19:00 +29°C° 0.4 mm 1 mps 741 mmHg 78%
    20:00 +29°C° 0.3 mm 2 mps 741 mmHg 81%
    21:00 +28°C° 0.3 mm 2 mps 741 mmHg 83%
    22:00 +28°C° 0.3 mm 2 mps 741 mmHg 86%
    23:00 +27°C° 0.5 mm 2 mps 741 mmHg 87%

    Day after tomorrow, 18 July, Thursday

    Time Temperature Precipitation Wind Pressure Humidity
    00:00 +27°C° 0.5 mm 1 mps 741 mmHg 89%
    01:00 +26°C° 0.5 mm 1 mps 741 mmHg 91%
    02:00 +26°C° 0 mm 1 mps 741 mmHg 91%
    03:00 +26°C° 0 mm 1 mps 741 mmHg 92%
    04:00 +26°C° 0 mm 1 mps 741 mmHg 93%
    05:00 +26°C° 0.1 mm 1 mps 741 mmHg 92%
    06:00 +26°C° 0.1 mm 1 mps 742 mmHg 91%
    07:00 +26°C° 0.1 mm 1 mps 742 mmHg 91%
    08:00 +26°C° 1.6 mm 2 mps 742 mmHg 90%
    09:00 +26°C° 1.6 mm 3 mps 742 mmHg 89%
    10:00 +26°C° 1.6 mm 4 mps 743 mmHg 89%
    11:00 +27°C° 1.3 mm 3 mps 742 mmHg 86%
    12:00 +28°C° 1.3 mm 2 mps 742 mmHg 82%
    13:00 +29°C° 1.3 mm 2 mps 742 mmHg 79%
    14:00 +28°C° 1.2 mm 3 mps 742 mmHg 81%
    15:00 +26°C° 1.2 mm 3 mps 741 mmHg 83%
    16:00 +25°C° 1.2 mm 4 mps 741 mmHg 84%
    17:00 +25°C° 0 mm 3 mps 741 mmHg 86%
    18:00 +25°C° 0 mm 2 mps 742 mmHg 88%
    19:00 +24°C° 0 mm 2 mps 742 mmHg 90%
    20:00 +24°C° 0 mm 1 mps 742 mmHg 91%
    21:00 +24°C° 0 mm 1 mps 742 mmHg 91%
    22:00 +24°C° 0 mm 1 mps 742 mmHg 92%
    23:00 +24°C° 0 mm 1 mps 742 mmHg 91%

    19 July, Friday

    Time Temperature Precipitation Wind Pressure Humidity
    00:00 +22°C° 0 mm 0 mps 742 mmHg 90%
    01:00 +22°C° 0 mm 0 mps 742 mmHg 89%
    02:00 +22°C° 0 mm 0 mps 742 mmHg 89%
    03:00 +22°C° 0 mm 0 mps 742 mmHg 90%
    04:00 +22°C° 0 mm 0 mps 742 mmHg 90%
    05:00 +22°C° 0 mm 0 mps 742 mmHg 90%
    06:00 +22°C° 0 mm 0 mps 743 mmHg 89%
    07:00 +23°C° 0 mm 0 mps 743 mmHg 89%
    08:00 +26°C° 0 mm 1 mps 743 mmHg 84%
    09:00 +28°C° 0 mm 1 mps 744 mmHg 79%
    10:00 +29°C° 0 mm 2 mps 744 mmHg 74%
    11:00 +30°C° 0 mm 2 mps 743 mmHg 69%
    12:00 +32°C° 0 mm 2 mps 742 mmHg 64%
    13:00 +34°C° 0 mm 2 mps 742 mmHg 59%
    14:00 +34°C° 0 mm 2 mps 741 mmHg 58%
    15:00 +34°C° 0 mm 2 mps 741 mmHg 58%
    16:00 +34°C° 0 mm 2 mps 741 mmHg 58%
    17:00 +32°C° 0.1 mm 2 mps 741 mmHg 64%
    18:00 +30°C° 0.1 mm 2 mps 741 mmHg 71%
    19:00 +29°C° 0.1 mm 2 mps 742 mmHg 77%
    20:00 +28°C° 1.3 mm 2 mps 742 mmHg 81%
    21:00 +27°C° 1.3 mm 2 mps 742 mmHg 85%
    22:00 +26°C° 1.3 mm 2 mps 743 mmHg 88%
    23:00 +26°C° 0.6 mm 3 mps 742 mmHg 89%

    20 July, Saturday

    Time Temperature Precipitation Wind Pressure Humidity
    00:00 +26°C° 0.6 mm 3 mps 742 mmHg 90%
    01:00 +25°C° 0.6 mm 4 mps 742 mmHg 91%
    02:00 +25°C° 0.7 mm 3 mps 742 mmHg 92%
    03:00 +25°C° 0.7 mm 3 mps 742 mmHg 94%
    04:00 +24°C° 0.7 mm 2 mps 742 mmHg 95%
    05:00 +24°C° 0.3 mm 3 mps 743 mmHg 95%
    06:00 +24°C° 0.3 mm 3 mps 743 mmHg 94%
    07:00 +24°C° 0.3 mm 3 mps 744 mmHg 94%
    08:00 +25°C° 0 mm 3 mps 744 mmHg 90%
    09:00 +26°C° 0 mm 3 mps 744 mmHg 86%
    10:00 +27°C° 0 mm 3 mps 745 mmHg 83%
    11:00 +27°C° 0 mm 3 mps 744 mmHg 82%
    12:00 +28°C° 0 mm 3 mps 744 mmHg 80%
    13:00 +28°C° 0 mm 3 mps 743 mmHg 79%
    14:00 +29°C° 0 mm 3 mps 742 mmHg 76%
    15:00 +29°C° 0 mm 3 mps 742 mmHg 73%
    16:00 +30°C° 0 mm 4 mps 741 mmHg 70%
    17:00 +29°C° 0 mm 3 mps 741 mmHg 74%
    18:00 +28°C° 0 mm 2 mps 741 mmHg 79%
    19:00 +27°C° 0 mm 2 mps 741 mmHg 83%
    20:00 +26°C° 0 mm 1 mps 742 mmHg 85%
    21:00 +26°C° 0 mm 1 mps 742 mmHg 86%
    22:00 +25°C° 0 mm 1 mps 743 mmHg 88%
    23:00 +25°C° 0 mm 1 mps 742 mmHg 89%

    21 July, Sunday

    Time Temperature Precipitation Wind Pressure Humidity
    00:00 +25°C° 0 mm 1 mps 742 mmHg 90%
    01:00 +25°C° 0 mm 1 mps 742 mmHg 91%
    02:00 +25°C° 0.1 mm 1 mps 742 mmHg 91%
    03:00 +25°C° 0.1 mm 2 mps 742 mmHg 91%
    04:00 +24°C° 0.1 mm 2 mps 742 mmHg 92%
    05:00 +25°C° 0.7 mm 2 mps 742 mmHg 93%
    06:00 +25°C° 0.7 mm 2 mps 743 mmHg 93%
    07:00 +25°C° 0.7 mm 2 mps 743 mmHg 94%
    08:00 +26°C° 0.6 mm 2 mps 743 mmHg 89%
    09:00 +28°C° 0.6 mm 2 mps 744 mmHg 84%
    10:00 +29°C° 0.6 mm 3 mps 744 mmHg 79%
    11:00 +29°C° 1.6 mm 3 mps 743 mmHg 76%
    12:00 +30°C° 1.6 mm 3 mps 743 mmHg 74%
    13:00 +31°C° 1.6 mm 3 mps 742 mmHg 71%
    14:00 +30°C° 1.2 mm 3 mps 742 mmHg 74%
    15:00 +30°C° 1.2 mm 2 mps 741 mmHg 77%
    16:00 +29°C° 1.2 mm 2 mps 741 mmHg 80%
    17:00 +28°C° 0.3 mm 2 mps 741 mmHg 83%
    18:00 +27°C° 0.3 mm 2 mps 741 mmHg 86%
    19:00 +26°C° 0.3 mm 1 mps 741 mmHg 90%
    20:00 +26°C° 0 mm 1 mps 742 mmHg 91%
    21:00 +25°C° 0 mm 2 mps 742 mmHg 92%
    22:00 +25°C° 0 mm 2 mps 742 mmHg 92%
    23:00 +25°C° 0 mm 2 mps 742 mmHg 93%
    Show more